SL-8 R/B

Satellite information

Favourite Embed

Satellite Type and Status

ROCKET BODYIN ORBIT

Key statistics

Satellite SL-8 R/B at a glance.

Uptime

20043

Days in orbit

Revolutions

≈ 14.4

Per day

Orbit

LEO

Low Earth Orbit

Inclination

74.1

Latest

Satellite identification and parameters

Extended collection of information and parameters for SL-8 R/B.

Object identification

Identified? True

Debris? False

Object name: SL-8 R/B

International designator: 1970-086B

Object number (NORAD): 4589

Object ID (CCSDS): 4589

Country: COMMONWEALTH OF INDEPENDENT STATES (CIS)

Current information (Y/N): Y

RCS size: LARGE

Orbital parameters

Period: 99.784 minutes

Inclination: 74.0611 deg

SMA: 7126.353 km

Apoapsis: 762.848 km

Periapsis: 733.588 km

RAAN: 172.17 deg

Eccentricy: 0.00205299

Argument of periapsis: 347.4825 deg

Mean anomaly: 12.5819 deg

Mean motion: 14.43117718 rev/day

Mean motion (dot): 0.00000516 rev/day2

B* drag term: 0.00016138846 1/REarth

Two-line elements (TLE)

Creation date: Aug. 31, 2025, 2:26 a.m.

Reference frame: TEME

Reference center: EARTH

Epoch: Aug. 30, 2025, 9:34 p.m. UTC

TLE line 0: 0 SL-8 R/B

TLE line 1: 1 04589U 70086B 25242.89863024 .00000516 00000-0 16139-3 0 9997

TLE line 2: 2 04589 74.0611 172.1700 0020530 347.4825 12.5819 14.43117718878644

Live tracking on map

Real-time ground track for satellite SL-8 R/B.

In-orbit conjunctions

A list of the most updated potential collisions computed for object SL-8 R/B.

Target Orbit TCA Probability of collision Miss distance Type
NOAA 16 DEB SSO 2025-08-24 02:24:00 0.0001113455 126.0 (m) DEBRIS
FENGYUN 1C DEB SSO 2025-05-25 15:07:54 0.0009365893 91.0 (m) DEBRIS
COSMOS 2251 DEB LEO 2025-05-21 00:52:47 0.001372994 93.0 (m) DEBRIS
FENGYUN 1C DEB SSO 2025-01-19 03:09:35 0.0005827961 57.0 (m) DEBRIS
NOAA 16 DEB SSO 2024-11-22 20:09:26 0.0001516261 323.0 (m) DEBRIS

Associated space launch

Military communications satellite

SL-8 R/B was lifted into orbit during the mission ‘Kosmos-3M | Strela-2M 2’, on board a Kosmos-3M space rocket.

The launch took place on Oct. 16, 1970, 2:59 p.m. from 132/1 (132L).

For more information about the launch, click the button.

Launch to space Kosmos-3M | Strela-2M 2
Kosmos-3M | Strela-2M 2

Agency: N/A

Status: Launch Successful

Launch date: Oct. 16, 1970, 2:59 p.m. UTC

Rocket: Kosmos-3M

Launch pad: 132/1 (132L)

Location: Plesetsk Cosmodrome, Russian Federation

...

Latest news about this satellite

There are no fresh news available about this satellite. Check back as we update our databases every day.


Newsletter sign-up

Weekly statistics, charts and insights to help you stay on top of the space industry.